User: anonymous   Login
Location: Theydon Bois
(51.6750°N, 0.1050°E)
Time: 02:42:32
(UTC+00:00)
Language:

Meteor 2-1 Rocket - Orbit

View from above orbital plane
View from above orbital plane
View from above satellite
View from above satellite

Ground track
Ground track

The orbit data is extracted from the following two-line orbital elements,

1 08027U 75064B   17346.85688272 -.00000061  00000-0 -43694-4 0  9995
2 08027  81.2979 243.5917 0057439 121.4847 239.1953 14.07314972177613
Epoch (UTC): 12 December 2017 20:33:54
Eccentricity: 0.0057439
inclination: 81.2979°
perigee height: 827 km
apogee height: 910 km
right ascension of ascending node: 243.5917°
argument of perigee: 121.4847°
revolutions per day: 14.07314972
mean anomaly at epoch: 239.1953°
orbit number at epoch: 17761

The dashed part of the orbit path shows where the satellite is in the earth's shadow,  

DLR